Location: Days
(41.3591°N, 106.7339°W)
Time: 03:07:35
(UTC+00:00)

STRAND 1 - Visible Passes

Search period start: 29 June 2022 00:00
Search period end: 09 July 2022 00:00
Orbit: 768 x 780 km, 98.4° (Epoch: 28 June)

Date Brightness Start Highest point End Pass type
(mag) Time Alt. Az. Time Alt. Az. Time Alt. Az.
30 Jun ? 03:35:20 10° NNW 03:38:43 18° WNW 03:42:05 10° WSW visible
03 Jul ? 03:31:50 10° NNW 03:35:23 19° WNW 03:38:54 10° WSW visible
05 Jul ? 04:05:27 10° NW 04:05:43 10° WNW 04:06:00 10° WNW visible
06 Jul ? 03:28:20 10° NNW 03:32:01 20° WNW 03:35:41 10° WSW visible
08 Jul ? 04:01:10 10° NW 04:02:23 11° WNW 04:03:36 10° WNW visible
